Temp_Advection
nan nan nan nan nan nan nan nan nan nan nan nan nan nan nan nan nan nan nan nan nan nan nan nan nan nan nan nan nan nan nan nan nan nan nan nan nan nan nan nan nan nan nan nan
nan -0 -0 -0 0 0 -1 -1 0 0 -0 -0 0 0 0 -0 0 -0 -0 0 0 0 -0 -0 -0 -0 -1 -0 0 0 0 0 -0 -0 -0 -0 -0 0 0 0 -0 0 -0 nan
nan -0 -0 -0 -0 0 -0 -1 -0 0 -0 0 0 0 0 0 0 0 0 -0 0 -0 -0 -0 -0 0 -0 -0 -0 -0 0 -0 0 0 0 -0 0 -0 -0 -0 -0 -0 -0 nan
nan -0 -0 -0 -0 -0 -0 -0 -0 0 -0 0 0 0 0 -0 0 -0 -0 -0 -0 0 0 -0 -0 -0 -0 -0 -0 -0 -0 -0 0 0 0 -0 -0 0 -0 -0 0 -0 0 nan
nan -0 -0 0 -0 -0 -0 -0 -0 -0 0 -0 -0 -0 0 0 -0 -0 -0 -0 -0 -0 0 0 -0 -0 0 -0 -0 -0 -0 0 0 0 0 -0 -0 0 -0 0 0 0 0 nan
nan 0 0 -0 0 -0 -0 -0 0 -0 -0 -0 0 -0 0 -0 0 -0 -0 -0 -0 0 0 -0 0 0 -0 0 0 0 -0 -0 -0 -0 -0 -0 -0 0 0 0 -0 -0 -0 nan
nan -0 0 0 0 0 -0 -0 -0 -0 -0 0 -0 0 -0 -0 -0 0 -0 -0 -0 -0 -0 -0 -0 -0 -0 0 0 0 -0 -0 -0 -0 -0 -0 -0 -0 -0 -0 -0 -0 -0 nan
nan 0 0 0 0 0 0 -0 -0 -0 -0 0 0 -0 0 0 -0 -0 0 0 0 0 -0 -0 0 -0 -0 -0 0 0 -0 0 0 -0 0 -0 -0 -0 0 -0 0 0 -0 nan
nan 0 0 0 0 0 0 -0 -0 -0 -1 0 0 -0 -0 -0 -0 -0 0 0 0 -0 -0 0 0 -0 -0 -0 0 0 -0 -0 0 0 0 -0 -0 -0 0 0 0 0 -0 nan
nan 0 0 0 0 0 -0 -0 -0 -0 -0 -0 -0 -0 0 -0 -0 0 -0 -0 -0 -0 -0 -0 0 -0 0 -0 -0 0 0 0 0 -0 -0 -0 -0 0 -0 -0 -0 -0 -0 nan
nan -0 0 0 0 0 0 -0 -0 -0 -0 -0 0 -0 -0 0 -0 -0 -0 -0 -0 -0 0 0 -0 0 0 -0 -0 0 -0 -0 0 0 0 -0 0 -0 -0 -0 -0 -0 -0 nan
nan -0 0 0 0 0 0 -0 -0 -0 0 -0 -0 0 0 -0 0 -0 -0 0 -0 -0 -0 0 0 0 -0 0 -0 -0 0 0 0 -0 -0 -0 -0 -0 -0 -0 -1 -0 -0 nan
nan 0 -0 -0 -0 0 0 -0 -0 -0 -0 -0 0 0 -0 0 0 0 0 0 -0 -0 -0 -0 0 0 -0 0 -0 -0 0 0 0 0 0 -0 -0 0 0 0 -0 -0 -0 nan
nan 0 -0 -0 -0 -0 -0 -0 -0 -0 0 -0 -0 -0 -0 0 0 -0 -0 0 0 0 0 0 -0 0 -0 0 0 0 -0 0 0 -0 -0 -0 -0 -0 0 0 0 0 0 nan
nan 0 -0 -0 -0 -0 0 0 0 0 0 0 -0 0 0 -0 -0 0 0 -0 -0 0 0 -0 -0 -0 -0 0 -0 -0 -1 -0 -0 -1 -1 -1 -1 -0 0 0 0 0 0 nan
nan 1 0 0 0 -0 0 0 0 0 0 0 -0 -0 0 0 0 -0 -0 -0 -0 -0 0 0 -0 0 0 0 -0 -1 -3 -2 -2 -0 -1 -0 0 0 0 -0 -0 0 0 nan
nan 1 0 0 0 0 -0 0 0 0 0 0 0 -0 -0 0 -0 -0 -0 -0 -0 0 0 0 0 0 0 0 -1 -1 -1 -0 0 -0 -0 -0 -0 -0 -0 0 0 0 0 nan
nan 0 0 0 0 -0 -0 -0 0 0 0 0 -0 -0 -0 0 0 0 0 0 0 0 0 0 0 0 0 -0 -3 -1 -0 0 -0 0 0 -1 -0 -0 0 0 1 0 0 nan
nan 0 0 -0 -0 -0 -0 0 0 0 0 0 -0 -0 -0 -0 0 0 0 0 -0 -0 0 -0 0 0 -1 -2 -3 -1 -1 -0 -0 1 1 1 1 1 1 0 -0 -0 0 nan
nan 0 -0 -0 -0 -0 0 0 0 0 0 0 0 -0 0 0 0 0 0 0 0 -0 -0 0 0 -1 -5 -4 -1 -0 -0 0 0 -1 -0 -0 -0 0 0 0 0 0 1 nan
nan -0 -0 -0 -0 -0 0 1 0 0 0 0 0 0 -0 0 -0 -0 0 0 0 0 -0 0 -0 -0 -1 -2 -1 0 0 0 -0 -1 -1 -1 -0 0 -0 0 0 1 0 nan
nan 0 -0 -0 0 1 -0 0 -0 0 -0 0 0 0 -0 0 -0 -0 0 -0 0 -0 0 0 -0 -1 -2 -0 -0 0 1 0 0 0 1 1 1 0 0 0 0 0 0 nan
nan 0 0 0 1 -0 0 0 0 -0 -0 -0 -0 0 0 0 0 -0 -0 -0 -0 -0 -0 -1 -1 -2 -1 0 -0 0 1 0 0 1 1 0 1 1 1 1 0 0 0 nan
nan 0 0 1 0 -0 -0 -0 -1 -0 -0 -0 -0 -0 0 0 -0 -0 0 -0 -0 -0 -0 -1 -0 -1 -1 -0 0 0 0 0 1 1 1 0 0 1 1 1 0 1 1 nan
nan 0 0 -0 -1 -0 -0 -0 -0 0 0 -0 -0 0 0 0 0 0 -0 -0 -0 -1 -0 -1 -0 0 -0 -0 0 -0 0 1 1 1 0 0 1 1 1 1 1 1 0 nan
nan 0 -0 -0 0 0 -0 -0 -0 -0 0 1 -0 -0 0 -0 0 0 0 -0 -1 -0 -1 -2 -0 -0 0 -0 0 0 0 0 0 1 0 1 1 1 1 1 1 0 0 nan
nan nan nan nan nan nan nan nan nan nan nan nan nan nan nan nan nan nan nan nan nan nan nan nan nan nan nan nan nan nan nan nan nan nan nan nan nan nan nan nan nan nan nan nan
Wind_Speed
16 17 18 19 16 17 9 9 4 8 7 5 2 2 3 2 4 4 3 2 3 5 5 3 2 2 1 2 1 2 4 1 3 4 4 3 2 4 4 2 5 2 3 3
17 17 19 17 15 13 11 8 5 6 8 3 3 2 4 4 5 4 4 4 4 2 3 4 2 3 5 5 1 2 1 3 3 6 4 5 6 6 1 3 1 9 3 5
19 18 19 17 15 13 10 6 2 3 6 3 2 2 3 2 5 3 4 3 4 2 4 4 3 2 4 6 2 2 1 4 3 4 4 2 6 12 11 2 3 2 6 7
19 19 19 15 15 10 5 4 2 2 1 3 3 1 2 2 2 3 4 4 4 3 3 3 2 1 4 5 7 2 2 2 3 3 4 8 7 6 8 8 4 4 7 9
18 17 14 13 12 8 6 5 5 5 3 2 3 5 3 2 2 4 3 5 4 6 4 2 3 2 0 2 6 5 4 1 2 5 3 11 7 9 9 7 6 3 5 4
15 12 14 18 10 6 7 10 9 3 3 2 3 2 1 1 3 4 6 2 4 5 1 2 2 2 0 2 2 3 3 2 2 3 3 1 5 6 6 3 6 4 5 3
12 14 21 17 13 12 10 8 4 4 1 2 0 1 3 3 2 4 3 6 4 1 2 3 2 1 2 1 3 2 3 2 1 3 3 3 4 2 1 5 5 6 3 3
10 12 15 12 10 11 11 9 4 3 2 1 4 5 4 4 7 4 3 4 4 2 1 3 2 3 3 2 3 2 1 2 1 2 1 3 2 1 1 3 3 4 4 6
8 10 10 10 9 8 9 12 9 4 8 1 1 1 1 1 1 4 2 2 2 4 2 2 2 1 2 2 4 3 2 3 3 1 2 0 2 1 4 2 3 2 3 5
9 8 10 9 7 5 3 7 9 5 4 3 3 2 2 1 2 1 3 2 2 4 2 2 2 1 2 1 2 1 2 2 2 0 1 5 3 2 2 3 5 2 6 8
8 6 8 8 5 5 1 5 7 6 2 5 2 2 2 3 2 3 3 2 3 3 3 2 2 2 2 1 3 2 2 2 2 1 1 5 7 5 6 5 9 9 6 7
11 8 9 6 4 4 2 5 8 6 1 3 3 2 3 3 2 4 3 1 1 3 3 0 1 1 1 2 2 1 2 5 3 6 4 3 7 5 6 13 14 12 11 8
13 13 11 10 7 5 3 7 7 7 3 2 2 3 2 0 0 2 1 2 2 1 0 3 1 2 3 2 4 2 3 5 3 1 3 6 8 9 12 11 9 9 8 10
17 16 14 11 10 7 4 9 6 6 4 1 2 4 5 3 3 2 2 1 3 2 3 2 2 2 4 3 2 3 5 7 5 4 3 3 12 15 17 16 12 11 9 7
22 23 18 14 11 6 6 7 6 6 5 3 4 3 6 5 5 4 3 3 3 3 2 2 3 2 2 2 1 4 11 7 5 6 16 11 14 25 22 20 19 16 15 12
22 23 19 15 13 6 0 3 3 5 2 3 2 3 4 6 5 4 4 4 4 3 3 4 3 3 2 2 3 9 24 19 21 4 11 15 3 29 26 22 20 17 14 13
20 20 20 15 10 5 2 2 8 4 4 2 4 3 1 5 5 3 5 6 5 4 3 4 3 4 6 2 4 7 18 27 21 15 12 18 13 28 28 24 20 19 17 16
22 20 16 11 4 2 3 5 4 2 4 3 1 3 3 5 4 3 2 3 3 4 3 3 3 3 3 5 13 11 12 23 22 22 18 18 19 26 28 25 24 23 21 18
21 17 12 7 3 3 4 7 7 8 6 3 4 3 3 5 3 3 2 2 1 2 2 3 4 3 6 10 16 23 23 27 24 27 24 17 24 29 31 30 28 26 23 21
15 10 3 4 5 7 6 5 3 4 5 6 5 5 2 9 6 3 2 2 1 1 3 2 3 5 29 30 20 13 29 29 26 32 24 26 29 34 36 36 32 28 24 21
14 5 3 2 2 5 5 4 3 3 3 6 3 10 3 6 2 3 4 2 1 1 3 2 3 4 6 12 25 27 23 34 30 33 31 34 32 35 35 34 30 26 23 21
15 5 5 3 4 4 1 2 3 2 4 4 6 5 3 5 3 1 2 1 2 5 2 2 4 5 13 8 7 23 28 30 34 31 28 28 29 28 29 30 29 26 21 20
18 6 4 4 4 2 6 5 4 2 7 10 8 3 6 5 5 4 2 1 4 1 2 4 6 11 15 10 11 12 29 26 32 32 26 23 26 25 27 27 25 23 22 19
7 8 5 5 4 5 5 5 4 3 4 14 11 5 2 3 2 2 3 3 2 3 3 6 3 18 20 11 10 10 23 25 28 31 28 25 27 27 26 25 24 23 21 18
9 7 5 6 8 6 3 7 4 5 12 17 6 4 4 1 2 3 2 3 4 6 5 3 13 23 19 14 13 13 16 24 26 28 28 26 26 27 27 26 24 21 19 17
6 8 4 3 1 4 7 10 10 10 16 8 3 3 3 4 3 2 7 5 6 4 3 12 21 20 18 16 12 13 15 20 25 26 27 26 26 27 26 25 24 22 18 15
6 6 19 15 6 7 8 14 11 13 18 3 4 4 10 2 1 3 5 6 4 6 18 20 20 21 20 17 16 15 15 18 23 25 27 26 25 25 26 26 24 20 16 13
Wind_Direction
83 91 101 109 106 116 132 81 68 98 12 47 22 48 29 75 16 18 57 97 94 152 175 123 165 200 313 298 190 252 186 207 300 264 271 257 182 3 336 31 356 319 303 340
94 101 112 106 103 111 107 81 93 53 10 78 357 13 54 68 29 19 36 52 27 40 127 98 169 245 277 296 249 298 320 347 348 343 356 27 36 14 11 307 62 12 350 326
107 107 117 113 110 116 101 105 92 13 51 53 58 69 56 83 31 54 46 65 65 59 48 46 133 317 286 309 276 242 222 37 35 95 64 348 53 28 28 50 51 338 14 320
110 115 124 124 120 100 80 75 116 114 64 9 356 82 79 76 44 28 34 49 73 145 90 62 74 257 310 318 323 121 103 85 48 91 98 68 68 43 31 55 19 59 342 2
121 129 135 135 138 83 84 109 133 109 118 338 34 3 7 100 69 27 5 106 58 87 101 170 164 160 21 289 321 18 2 110 100 178 125 84 58 12 34 28 11 47 340 23
124 126 136 134 126 94 89 97 104 111 10 42 75 281 33 66 123 60 55 145 98 72 104 305 317 330 140 304 320 326 25 57 53 278 300 14 37 348 22 49 20 339 11 346
130 119 137 124 96 99 94 95 95 97 18 62 201 92 86 51 13 132 31 56 102 148 319 298 281 280 319 341 3 16 14 78 148 271 16 47 241 224 140 79 35 2 343 270
144 130 149 142 112 94 71 65 73 75 101 43 52 81 105 71 51 65 74 54 90 17 27 71 69 354 353 300 279 342 68 120 58 102 38 292 311 242 323 51 329 338 324 334
158 149 144 155 144 113 71 53 54 63 124 319 124 27 155 147 43 359 15 95 63 26 92 80 103 164 220 304 346 206 98 66 115 95 87 281 240 201 99 296 329 0 42 23
186 179 172 176 183 181 71 32 25 25 97 117 142 171 187 168 115 112 318 344 18 15 52 81 123 247 224 247 285 268 351 351 108 64 178 285 226 157 86 93 242 113 65 63
217 202 202 199 190 180 116 9 10 11 47 140 141 166 195 182 186 147 173 44 341 38 62 116 222 158 248 349 262 233 181 139 222 126 83 293 165 119 164 174 141 145 128 105
228 217 200 192 194 162 63 355 3 19 322 167 167 130 109 92 111 129 156 234 170 174 93 279 100 270 38 148 260 303 251 185 196 181 223 261 197 238 207 166 155 162 154 149
230 217 215 199 201 180 43 11 16 2 33 112 193 207 203 346 325 172 203 164 170 210 49 154 167 252 125 195 246 245 243 182 201 59 233 223 199 181 176 185 185 172 161 158
214 213 209 202 206 200 307 341 343 357 338 22 245 231 215 243 250 243 227 135 190 193 191 182 165 200 198 239 252 203 214 151 180 253 239 216 223 201 193 188 192 184 186 191
208 195 193 195 191 199 309 333 334 308 324 296 302 228 226 242 247 249 250 238 242 215 201 153 225 220 154 253 331 245 191 185 174 217 195 185 209 195 192 191 189 189 189 189
190 184 177 179 170 190 247 326 334 319 309 318 338 273 239 229 244 256 258 253 261 256 239 229 234 214 196 205 240 250 203 198 201 197 192 189 219 190 192 194 191 192 199 209
158 160 158 159 170 175 217 298 307 295 300 297 311 322 262 221 232 260 273 267 263 253 253 234 225 207 201 222 236 253 205 201 200 203 183 196 190 187 193 196 197 198 201 207
147 148 146 147 152 185 269 309 306 273 273 248 128 274 308 193 191 188 242 263 264 239 266 243 215 195 207 254 234 233 205 195 202 199 203 208 197 193 192 196 199 201 205 210
143 148 155 162 200 241 250 290 283 250 237 256 180 162 240 179 205 213 189 211 316 271 254 250 170 210 227 225 221 212 199 187 192 190 198 193 194 191 193 197 202 207 208 213
160 158 196 201 200 219 286 280 238 210 210 219 233 203 207 172 176 222 183 177 221 277 251 184 222 255 253 248 236 233 207 196 188 178 179 187 193 194 197 202 206 208 211 213
183 185 245 250 268 215 241 244 199 185 255 217 230 189 156 199 128 213 225 200 176 45 258 153 270 273 251 262 236 222 209 203 205 210 210 205 203 197 200 202 206 207 210 215
187 183 183 195 256 216 86 245 324 188 237 188 162 174 161 167 184 124 221 173 37 236 141 76 266 255 284 271 246 213 211 208 209 214 219 216 213 210 207 204 203 206 211 211
183 191 201 192 204 13 171 219 273 262 194 180 171 160 165 152 183 104 86 249 230 5 57 235 238 271 309 289 259 257 207 213 212 214 216 215 211 208 207 205 205 207 208 212
159 174 230 184 214 239 193 189 197 196 177 165 154 123 157 149 115 150 122 217 52 345 296 239 279 330 328 281 272 252 214 215 213 211 211 209 207 206 206 208 209 208 209 213
174 194 222 217 223 222 237 219 192 166 160 155 141 109 170 164 132 183 47 353 246 210 234 245 325 336 334 321 279 265 236 226 219 215 213 210 206 204 204 204 206 208 209 213
211 217 201 187 258 248 206 200 206 191 170 164 155 117 84 235 165 133 217 140 234 258 232 308 328 333 333 326 303 281 260 244 231 225 221 216 207 204 204 202 203 205 208 214
221 230 207 195 213 230 221 211 199 178 166 186 140 157 218 98 110 249 189 204 219 229 305 320 323 326 327 321 308 291 269 249 240 233 225 221 214 207 204 204 203 202 208 216
Height
1450 1451 1452 1454 1456 1457 1460 1457 1465 1469 1467 1467 1468 1475 1472 1472 1473 1473 1473 1474 1475 1481 1482 1484 1495 1486 1480 1476 1476 1476 1477 1478 1475 1469 1459 1459 1460 1463 1457 1456 1459 1462 1452 1447
1453 1454 1456 1458 1459 1460 1460 1465 1471 1473 1471 1477 1477 1472 1474 1474 1475 1475 1475 1477 1476 1475 1478 1487 1485 1490 1479 1476 1476 1475 1474 1480 1487 1469 1462 1461 1466 1465 1458 1455 1459 1465 1457 1456
1456 1458 1459 1460 1460 1460 1462 1466 1474 1476 1475 1476 1477 1475 1477 1478 1477 1477 1477 1478 1477 1476 1479 1481 1484 1490 1479 1475 1474 1473 1473 1477 1477 1480 1475 1474 1471 1468 1462 1461 1466 1465 1466 1461
1460 1460 1461 1462 1463 1464 1465 1466 1474 1476 1480 1478 1478 1476 1476 1479 1479 1477 1478 1480 1480 1482 1484 1484 1485 1486 1480 1474 1472 1472 1473 1482 1477 1478 1476 1474 1475 1473 1467 1468 1466 1471 1466 1461
1462 1463 1464 1465 1466 1466 1466 1468 1471 1475 1477 1478 1478 1479 1479 1479 1480 1480 1480 1482 1483 1481 1485 1484 1484 1483 1483 1480 1473 1473 1474 1479 1478 1480 1477 1474 1478 1475 1469 1466 1466 1467 1465 1464
1465 1465 1465 1467 1469 1469 1469 1470 1472 1474 1479 1479 1480 1482 1480 1481 1480 1482 1481 1482 1483 1485 1486 1484 1483 1482 1481 1479 1479 1478 1477 1481 1487 1481 1474 1474 1483 1479 1476 1474 1471 1469 1468 1470
1470 1470 1470 1471 1472 1472 1473 1472 1473 1474 1483 1481 1481 1480 1480 1481 1480 1482 1484 1483 1483 1486 1484 1484 1484 1482 1481 1480 1478 1477 1479 1482 1485 1487 1479 1489 1482 1477 1474 1476 1475 1471 1468 1466
1475 1476 1476 1476 1476 1477 1477 1475 1476 1476 1484 1483 1482 1482 1482 1483 1482 1483 1484 1484 1485 1485 1485 1487 1488 1490 1485 1481 1479 1477 1478 1482 1483 1486 1492 1485 1478 1478 1474 1476 1477 1473 1471 1467
1477 1478 1479 1480 1480 1480 1480 1479 1479 1479 1481 1487 1485 1485 1484 1486 1486 1485 1485 1485 1484 1484 1485 1487 1488 1495 1484 1483 1482 1479 1480 1481 1484 1486 1487 1482 1476 1475 1477 1471 1480 1473 1472 1470
1479 1480 1481 1482 1483 1483 1484 1483 1482 1481 1481 1484 1485 1486 1486 1485 1486 1487 1485 1484 1484 1483 1487 1491 1498 1490 1485 1486 1481 1481 1486 1485 1484 1486 1492 1482 1474 1474 1476 1484 1483 1473 1472 1472
1481 1482 1483 1484 1484 1485 1486 1485 1484 1484 1483 1485 1485 1486 1486 1486 1485 1487 1486 1487 1485 1486 1487 1490 1492 1490 1489 1487 1481 1478 1482 1487 1486 1489 1485 1486 1469 1473 1478 1475 1474 1474 1474 1474
1480 1482 1483 1486 1486 1487 1488 1487 1485 1484 1484 1485 1485 1486 1486 1486 1486 1486 1486 1487 1485 1485 1489 1491 1490 1487 1496 1490 1488 1480 1485 1479 1480 1482 1477 1468 1466 1466 1467 1469 1472 1475 1475 1476
1480 1481 1483 1486 1487 1489 1489 1488 1487 1486 1485 1485 1486 1486 1487 1486 1486 1486 1487 1486 1486 1485 1486 1487 1489 1489 1489 1490 1487 1478 1473 1472 1475 1474 1467 1466 1466 1466 1466 1467 1469 1472 1474 1476
1476 1480 1484 1486 1487 1490 1490 1490 1489 1489 1488 1486 1485 1484 1485 1486 1486 1486 1486 1485 1485 1485 1486 1486 1488 1491 1485 1485 1480 1480 1470 1470 1470 1469 1465 1466 1464 1465 1466 1468 1469 1470 1472 1473
1471 1472 1479 1485 1488 1490 1491 1490 1490 1489 1492 1488 1485 1484 1484 1485 1485 1485 1486 1486 1486 1485 1484 1485 1486 1483 1485 1482 1481 1474 1457 1457 1463 1459 1449 1452 1453 1459 1463 1466 1467 1469 1471 1472
1469 1472 1478 1483 1487 1489 1490 1490 1489 1488 1488 1487 1486 1485 1483 1484 1484 1485 1485 1485 1485 1485 1483 1481 1479 1478 1481 1484 1478 1442 1440 1442 1444 1445 1446 1449 1450 1454 1459 1462 1465 1467 1469 1470
1473 1476 1479 1485 1488 1490 1490 1491 1490 1487 1487 1486 1486 1482 1482 1482 1483 1484 1484 1484 1484 1484 1481 1479 1477 1476 1477 1476 1468 1432 1433 1438 1441 1443 1445 1449 1449 1449 1454 1458 1462 1464 1467 1468
1473 1480 1484 1486 1488 1490 1490 1488 1487 1486 1487 1485 1485 1483 1482 1481 1480 1481 1482 1482 1482 1480 1478 1477 1475 1474 1472 1465 1429 1428 1430 1434 1437 1439 1441 1442 1445 1449 1453 1455 1457 1460 1462 1464
1479 1483 1485 1486 1488 1488 1488 1486 1485 1485 1488 1483 1482 1485 1484 1478 1479 1479 1479 1479 1481 1479 1477 1474 1474 1467 1458 1421 1417 1419 1422 1423 1425 1434 1438 1440 1442 1446 1449 1452 1454 1456 1458 1460
1479 1484 1486 1484 1484 1485 1487 1484 1483 1481 1480 1480 1477 1475 1477 1476 1477 1477 1478 1477 1478 1483 1473 1471 1468 1446 1417 1409 1411 1412 1416 1421 1424 1428 1433 1435 1438 1439 1442 1445 1450 1454 1458 1460
1479 1482 1485 1484 1482 1483 1483 1479 1479 1478 1477 1472 1470 1471 1474 1476 1477 1477 1477 1477 1476 1484 1472 1473 1463 1441 1405 1399 1400 1408 1410 1415 1417 1420 1424 1427 1430 1433 1438 1443 1448 1452 1454 1456
1477 1481 1483 1483 1482 1479 1481 1480 1477 1476 1473 1468 1468 1470 1472 1473 1474 1476 1477 1479 1480 1478 1468 1474 1460 1417 1402 1401 1401 1402 1407 1409 1413 1416 1420 1425 1429 1433 1436 1440 1443 1447 1451 1453
1478 1481 1480 1478 1478 1482 1482 1481 1479 1476 1463 1463 1465 1467 1468 1471 1473 1474 1477 1482 1478 1470 1477 1461 1431 1402 1404 1403 1403 1402 1403 1407 1409 1413 1417 1420 1425 1429 1432 1436 1440 1444 1446 1448
1473 1477 1477 1471 1473 1466 1459 1460 1457 1456 1457 1460 1464 1467 1469 1469 1471 1473 1478 1471 1473 1481 1478 1445 1417 1410 1406 1404 1405 1404 1405 1406 1408 1410 1414 1417 1419 1423 1428 1432 1436 1438 1440 1443
1465 1466 1464 1458 1449 1448 1449 1451 1454 1455 1457 1459 1463 1465 1467 1469 1471 1470 1475 1477 1474 1463 1445 1427 1415 1411 1408 1406 1405 1406 1406 1408 1409 1412 1413 1414 1417 1420 1424 1427 1431 1435 1437 1439
1455 1452 1448 1448 1451 1447 1446 1447 1450 1453 1456 1459 1461 1464 1469 1466 1465 1472 1467 1471 1464 1438 1426 1418 1415 1412 1410 1408 1406 1406 1407 1408 1409 1412 1414 1415 1415 1417 1421 1425 1427 1430 1433 1435
1443 1440 1439 1438 1440 1443 1443 1442 1446 1450 1455 1456 1458 1466 1455 1457 1464 1463 1451 1446 1424 1418 1417 1415 1413 1411 1409 1408 1407 1406 1405 1406 1408 1410 1412 1414 1416 1418 1419 1420 1423 1426 1429 1431